Flag for USA

Past Weather in 40°55'00"N, 72°41'56"W, USA — Yesterday and Last 2 Weeks

Now
53 °F

Partly sunny.


Feels Like: 51 °F
Forecast: 56 / 44 °F
Wind: 8 mph from South

Location: Tweed-New Haven Airport

Current Time: Apr 4, 2020 at 7:18:05 pm

Latest Report: Apr 4, 2020 at 5:53 pm


Visibility: 10 mi

Pressure: 29.98 "Hg

Humidity: 61%

Dew Point: 40 °F

Location of 40°55'00"N, 72°41'56"WLocation

Past Weather in 40°55'00"N, 72°41'56"W — Graph

°F

40°55'00"N, 72°41'56"W Temperature Yesterday

Maximum temperature yesterday: 54 °F (at 3:53 pm)
Minimum temperature yesterday: 44 °F (at 4:53 am)
Average temperature yesterday: 48 °F

High & Low Weather Summary for the Past Weeks

 TemperatureHumidityPressure
High66 °F (Mar 27, 3:53 pm)97% (Mar 29, 5:18 am)30.72 "Hg (Mar 29, 5:18 am)
Low30 °F (Mar 22, 6:53 am)17% (Mar 27, 3:53 pm)29.53 "Hg (Apr 3, 3:53 am)
Average45 °F68%30.01 "Hg
* Reported Mar 20 5:53 pm — Apr 4 5:53 pm, 40°55'00"N, 72°41'56"W. Weather by CustomWeather, © 2020

Note: Actual official high and low records may vary slightly from our data, if they occured in-between our weather recording intervals... More about our weather records

40°55'00"N, 72°41'56"W Weather History for the Previous 24 Hours

Scroll right to see more
 ConditionsComfort  
Time TempWeatherWind HumidityBarometerVisibility
5:53 pm
Sat, Apr 4
53 °FPartly sunny.8 mph61%29.98 "Hg10 mi
4:53 pm53 °FSunny.10 mph64%29.98 "Hg10 mi
3:53 pm54 °FPassing clouds.10 mph62%29.98 "Hg10 mi
1:53 pm56 °FSunny.13 mph55%29.99 "Hg10 mi
12:53 pm55 °FPassing clouds.15 mph57%30.00 "Hg10 mi
11:53 am55 °FPartly sunny.16 mph57%30.01 "Hg10 mi
10:53 am53 °FOvercast.10 mph61%30.01 "Hg10 mi
9:53 am48 °FOvercast.15 mph68%30.01 "Hg10 mi
8:53 am48 °FOvercast.12 mph71%29.98 "Hg10 mi
7:53 am47 °FOvercast.15 mph71%29.98 "Hg10 mi
6:53 am47 °FOvercast.12 mph71%29.95 "Hg10 mi
5:53 am48 °FOvercast.14 mph68%29.91 "Hg10 mi
4:53 am48 °FOvercast.17 mph71%29.89 "Hg10 mi
3:53 am49 °FOvercast.16 mph71%29.87 "Hg10 mi
2:53 am49 °FOvercast.14 mph74%29.87 "Hg10 mi
1:53 am49 °FMostly cloudy.10 mph80%29.86 "Hg10 mi
12:53 am49 °FMostly cloudy.15 mph84%29.86 "Hg10 mi
12:39 am49 °FMostly cloudy.14 mph84%29.86 "Hg10 mi
11:53 pm
Fri, Apr 3
49 °FMostly cloudy.15 mph84%29.85 "Hg10 mi
10:53 pm50 °FOvercast.14 mph74%29.83 "Hg10 mi
10:00 pm51 °FMostly cloudy.13 mph71%29.83 "Hg10 mi
8:53 pm51 °FMostly cloudy.16 mph74%29.80 "Hg10 mi
7:53 pm51 °FOvercast.15 mph74%29.78 "Hg10 mi
Weather by CustomWeather, © 2020

See weather overview

Advertising